Home   Weather   Kreuztal   Past weeks

Flag for Germany Past Weather in Kreuztal, North Rhine-Westphalia, Germany — Yesterday and Last 2 Weeks

48 °F


Feels Like: 43 °F
Forecast: 41 / 53 °F
Wind: 12 mph from Northwest

Location: Hessen

Current Time: Oct 28, 2016 at 6:06:45 PM

Latest Report: Oct 28, 2016 at 5:20 PM

Visibility: 3 mi

Pressure: 30.51 "Hg

Humidity: 100%

Dew Point: 48 °F

Location of KreuztalLocation

Past Weather in Kreuztal — Graph


Kreuztal Temperature Yesterday

Maximum temperature yesterday: 50 °F (at 10:50 AM)
Minimum temperature yesterday: 45 °F (at 7:20 AM)
Average temperature yesterday: 49 °F

High & Low Weather Summary for the Past Weeks

High59 °F (Oct 16, 2:50 PM)100% (Oct 14, 7:50 AM)30.51 "Hg (Oct 14, 7:50 AM)
Low37 °F (Oct 14, 7:50 AM)59% (Oct 16, 3:50 PM)29.68 "Hg (Oct 14, 7:50 PM)
Average45 °F95%30.06 "Hg
* Reported Oct 13 4:50 PM — Oct 28 4:50 PM, Kreuztal, Weather by CustomWeather, © 2016

Note: Actual official high and low records may vary slightly from our data, if they occured in-between our weather recording intervals... More about our weather records


Kreuztal Weather History for the Previous 24 Hours

Scroll right to see more
Time TempWeatherWind HumidityBarometerVisibility
4:50 PM
Fri, Oct 28
48 °FLow clouds.13 mph100%30.51 "Hg4 mi
4:20 PM48 °FDrizzle. Low clouds.15 mph100%30.51 "Hg4 mi
3:50 PM50 °FLow clouds.14 mph94%30.48 "Hg6 mi
3:20 PM50 °FLow clouds.14 mph94%30.48 "HgN/A
2:50 PM48 °FPartly sunny.13 mph100%30.48 "HgN/A
2:20 PM48 °FBroken clouds.15 mph100%30.48 "HgN/A
1:50 PM50 °FBroken clouds.14 mph94%30.48 "HgN/A
1:20 PM50 °FBroken clouds.14 mph88%30.48 "HgN/A
12:50 PM48 °FBroken clouds.14 mph94%30.51 "HgN/A
12:20 PM48 °FBroken clouds.12 mph94%30.51 "HgN/A
11:50 AM48 °FBroken clouds.12 mph100%30.48 "Hg4 mi
11:20 AM48 °FDrizzle. Broken clouds.14 mph94%30.51 "Hg4 mi
10:50 AM48 °FBroken clouds.13 mph94%30.48 "HgN/A
10:20 AM48 °FDrizzle. Broken clouds.10 mph94%30.48 "HgN/A
9:50 AM48 °FBroken clouds.14 mph94%30.48 "HgN/A
9:20 AM48 °FBroken clouds.9 mph94%30.48 "HgN/A
8:50 AM46 °FBroken clouds.14 mph100%30.48 "HgN/A
8:20 AM46 °FBroken clouds.14 mph100%30.48 "HgN/A
7:50 AM46 °FPartly cloudy.10 mph100%30.45 "Hg4 mi
8:50 PM
Thu, Oct 27
48 °FPassing clouds.5 mph100%30.51 "HgN/A
8:20 PM48 °FPassing clouds.7 mph100%30.51 "HgN/A
7:50 PM48 °FPassing clouds.5 mph100%30.51 "HgN/A
7:20 PM48 °FPassing clouds.5 mph100%30.51 "HgN/A
6:50 PM48 °FPassing clouds.5 mph100%30.51 "HgN/A
6:20 PM50 °FPartly cloudy.5 mph88%30.51 "HgN/A
Weather by CustomWeather, © 2016

See weather overviewHow to use our weather pages